Regional Weather Roundup
Issued by NWS

Home | Current Version | Previous Version | Graphics & Text | Print | Product List | Glossary Off
Versions: 1 2 3 4 5 6 7 8 9 10 11 12 13 14 15 16 17 18 19 20 21 22 23 24 25 26 27 28 29 30 31 32 33 34 35 36 37 38 39 40 41 42 43 44 45 46 47 48 49 50

719
ASUS43 KLSX 220710
RWRMO

WEATHER SUMMARY FOR MISSOURI
NATIONAL WEATHER SERVICE SPRINGFIELD MO
200 AM CDT SAT JUL 22 2017

NOTE: "FAIR" INDICATES FEW OR NO CLOUDS BELOW 12,000 FEET WITH NO
       SIGNIFICANT WEATHER AND/OR OBSTRUCTIONS TO VISIBILITY.
       CURRENT SKY AND/OR WEATHER CONDITIONS ARE NOT AVAILABLE FOR
       CHILLICOTHE AND FARMINGTON.

MOZ001>031-035>038-043-044-053-054-220800-
...NORTHERN AND WESTERN MISSOURI...

CITY           SKY/WX    TMP DP  RH WIND       PRES   REMARKS
KANSAS CTY INT CLEAR     84  72  67 SW17G24   29.82F
KANSAS C DTWN  CLEAR     87  72  60 SW13      29.81F HX  93
LEE`S SUMMIT   CLEAR     84  72  67 SW14G23   29.85S
ST JOSEPH      CLEAR     84  74  71 S16       29.77F HX  91
CHILLICOTHE      N/A     84  73  69 S8G17     29.80F HX  90
KIRKSVILLE     CLEAR     83  71  67 SW9       29.82R

$$
MOZ066>068-077>081-088>096-101>105-220800-
...SOUTHWEST MISSOURI...

CITY           SKY/WX    TMP DP  RH WIND       PRES   REMARKS
SPRINGFIELD    CLEAR     78  72  81 S9        29.93F
JOPLIN         CLEAR     84  72  67 S16       29.92F
BRANSON          N/A     79  72  78 S6        29.97F

$$
MOZ032>034-039>042-045>050-055>058-069>072-220800-
...CENTRAL MISSOURI...

CITY           SKY/WX    TMP DP  RH WIND       PRES   REMARKS
COLUMBIA       CLEAR     81  69  67 S12       29.86F
JEFFERSON CITY CLEAR     84  72  67 S10       29.85F
ROLLA          CLEAR     78  73  84 S9        29.90F
SEDALIA        CLEAR     83  73  72 SW12      29.87F
WHITEMAN AFB   CLEAR     80  74  80 SW15      29.84F
WARRENSBURG    CLEAR     81  70  69 S9        29.85F
OSAGE BEACH    CLEAR     77  70  79 CALM      29.90F

$$
MOZ051-052-059>065-220800-
...EAST CENTRAL MISSOURI...

CITY           SKY/WX    TMP DP  RH WIND       PRES   REMARKS
ST LOUIS INTL  CLEAR     89  72  56 SW14      29.85F HX  96
SPIRIT OF STL  CLEAR     86  74  67 SW10      29.84F HX  94
ST CHARLES     CLEAR     85  72  65 SW7       29.83F HX  91

$$
MOZ072>076-082>087-097>100-106>115-220800-
...SOUTH CENTRAL AND SOUTHEAST MISSOURI...

CITY           SKY/WX    TMP DP  RH WIND       PRES   REMARKS
CAPE GIRARDEAU CLEAR     80  74  81 SW6       29.90F
FARMINGTON     CLEAR     80  75  84 SW7       29.93F
POPLAR BLUFF   CLEAR     81  77  88 SW7       29.92F
WEST PLAINS    CLEAR     81  73  76 S7        29.97F

$$




USA.gov is the U.S. government's official web portal to all federal, state and local government web resources and services.